カタログに戻る

FLOCK 4G 6

運用中科学SSO
NORAD 62660·PAYLOAD·🇺🇸 United States

打ち上げ Jan 14, 2025 から Vandenberg Space Force Base

Loading…

次のパス (今後24時間)

TLE

最新Source: CelesTrak SupGP

元期: Sep 14, 2026, 18:45 UTC

1 62660C 25009BD  26257.78146991  .00000686  00000+0  22974-4 0  2577
2 62660  97.3885 338.7798 0003451  37.6892 221.2173 15.31001433    15

AllMySatでFLOCK 4G 6をリアルタイム追跡

Download on the App Store